sat.trackr.live / text

‹ back to catalog

STARLINK-30099

NORAD 56304 · 2023-056U

PAYLOAD ACTIVE UNKNOWN

§ Identity

Operator
Country
US
Launch date
2023-04-19
Launch site
AFETR
Launch vehicle
Mass (kg)
RCS (m²)

Purposes: comms

External: N2YO · Heavens-Above · Gunter

§ Orbital elements

Epoch: 2026-09-20T11:36:41.661792Z

Period
94.27 min
Inclination
43.0010°
Eccentricity
0.0001461
Mean motion
15.27591257 rev/d
Perigee alt
482.0 km
Apogee alt
484.0 km
Semi-major
6,861.2 km
B*
1.7817e-4
RAAN
188.5294°
Arg perigee
271.8388°
Mean anomaly
88.2296°
Rev number
18,989

§ Raw data

STARLINK-300991 56304U 23056U   26263.48381553  .00004645  00000+0  17817-3 0  99952 56304  43.0010 188.5294 0001461 271.8388  88.2296 15.27591257189898

JSON: /api/v1/satellites/56304 · /tle

For live sub-satellite position, see the globe view (requires WebGL).

§ Visibility from observer

Set your observer location to see the next 7 days of passes ≥ 10°. The values pass through the URL so the page stays shareable.

No JS? Fill the form by hand. The geolocation button needs JavaScript.